Location: *
(37.5724°S, 58.0067°E)
Time: 00:18:15
(UTC+00:00)

CZ-4C R/B - Visible Passes

Search period start: 24 January 2021 00:00
Search period end: 03 February 2021 00:00
Orbit: 620 x 1382 km, 63.4° (Epoch: 23 January)

Date Brightness Start Highest point End Pass type
(mag) Time Alt. Az. Time Alt. Az. Time Alt. Az.
24 Jan 3.9 21:53:09 33° NE 21:55:00 36° ENE 22:01:47 10° SE visible
24 Jan 3.3 23:38:21 23° WNW 23:43:34 53° SW 23:50:37 10° SSE visible
25 Jan 5.0 20:40:41 13° ENE 20:40:41 13° ENE 20:43:55 10° E visible
25 Jan 3.1 22:25:52 48° N 22:28:22 72° ENE 22:35:44 10° SE visible
26 Jan 4.1 00:11:04 11° WNW 00:17:29 29° SW 00:23:32 10° SSE visible
26 Jan 4.1 21:13:21 30° ENE 21:13:31 30° ENE 21:19:56 10° SE visible
26 Jan 3.1 22:58:32 37° WNW 23:01:56 63° SW 23:09:07 10° SSE visible
27 Jan 4.7 00:47:09 10° WSW 00:51:46 17° SW 00:56:02 10° S visible
27 Jan 3.1 21:45:58 58° NE 21:46:48 60° ENE 21:54:06 10° SE visible
27 Jan 3.9 23:31:09 20° W 23:35:46 34° SW 23:42:09 10° SSE visible
28 Jan 4.4 20:33:20 24° E 20:33:20 24° E 20:37:59 10° ESE visible
28 Jan 3.0 22:18:31 56° WNW 22:20:19 73° WSW 22:27:36 10° SSE visible
29 Jan 4.6 00:04:39 10° W 00:09:57 19° SW 00:14:46 10° S visible
29 Jan 3.4 21:05:51 50° ENE 21:05:51 50° ENE 21:12:25 10° SE visible
29 Jan 3.7 22:51:01 29° W 22:54:05 40° SW 23:00:43 10° SSE visible
30 Jan 5.0 00:42:52 10° SW 00:44:33 11° SSW 00:46:11 10° SSW visible
30 Jan 4.7 19:53:08 17° E 19:53:08 17° E 19:55:54 10° ESE visible
30 Jan 2.8 21:38:18 81° WNW 21:38:43 85° WSW 21:46:05 10° SSE visible
30 Jan 4.4 23:23:29 13° W 23:28:09 22° SW 23:33:28 10° S visible
31 Jan 3.9 20:25:33 37° E 20:25:33 37° E 20:30:43 10° SE visible
31 Jan 3.5 22:10:43 41° W 22:12:24 46° SW 22:19:16 10° SSE visible
31 Jan 4.9 23:59:39 10° SW 00:02:39 13° SSW 00:05:30 10° S visible
01 Feb 5.0 19:12:44 12° ESE 19:12:44 12° ESE 19:13:37 10° ESE visible
01 Feb 3.0 20:57:54 74° ESE 20:57:54 74° ESE 21:04:30 10° SE visible
01 Feb 4.3 22:43:05 20° WSW 22:46:23 26° SW 22:52:08 10° S visible
02 Feb 4.2 19:45:04 28° ESE 19:45:04 28° ESE 19:48:55 10° SE visible
02 Feb 3.3 21:30:13 54° WSW 21:30:44 55° SW 21:37:48 10° SSE visible
02 Feb 4.9 23:16:50 10° WSW 23:20:47 15° SW 23:24:27 10° S visible
